TimeCDT,TemperatureF,Dew PointF,Humidity,Sea Level PressureIn,VisibilityMPH,Wind Direction,Wind SpeedMPH,Gust SpeedMPH,PrecipitationIn,Events,Conditions,WindDirDegrees,DateUTC
12:15 AM,53.6,51.8,94,29.90,7.0,Calm,Calm,-,N/A,,Clear,0,2012-10-01 05:15:00
12:35 AM,57.2,53.6,88,29.90,0.5,Calm,Calm,-,N/A,Fog,Fog,0,2012-10-01 05:35:00
12:55 AM,55.4,51.8,88,29.89,3.0,Calm,Calm,-,N/A,,Haze,0,2012-10-01 05:55:00
1:15 AM,55.4,51.8,88,29.89,0.8,Calm,Calm,-,N/A,,Mist,0,2012-10-01 06:15:00
1:35 AM,53.6,51.8,94,29.89,0.8,Calm,Calm,-,N/A,,Mist,0,2012-10-01 06:35:00
1:55 AM,55.4,51.8,88,29.89,1.2,Calm,Calm,-,N/A,,Mist,0,2012-10-01 06:55:00
2:15 AM,55.4,50.0,82,29.89,2.5,Calm,Calm,-,N/A,,Haze,0,2012-10-01 07:15:00
2:35 AM,51.8,48.2,88,29.89,2.5,Calm,Calm,-,N/A,,Clear,0,2012-10-01 07:35:00
2:55 AM,51.8,50.0,94,29.88,4.0,Calm,Calm,-,N/A,,Clear,0,2012-10-01 07:55:00
3:15 AM,51.8,50.0,94,29.88,1.5,Calm,Calm,-,N/A,,Mist,0,2012-10-01 08:15:00
3:35 AM,53.6,50.0,88,29.88,2.5,North,3.5,-,N/A,,Clear,360,2012-10-01 08:35:00
4:15 AM,51.8,48.2,88,29.88,7.0,Calm,Calm,-,N/A,,Clear,0,2012-10-01 09:15:00
4:35 AM,53.6,48.2,82,29.88,5.0,Calm,Calm,-,N/A,,Clear,0,2012-10-01 09:35:00
5:15 AM,50.0,48.2,94,29.88,5.0,Calm,Calm,-,N/A,,Clear,0,2012-10-01 10:15:00
5:35 AM,50.0,46.4,87,29.88,7.0,Calm,Calm,-,N/A,,Clear,0,2012-10-01 10:35:00
5:55 AM,50.0,48.2,94,29.89,10.0,Calm,Calm,-,N/A,,Clear,0,2012-10-01 10:55:00
6:15 AM,50.0,48.2,94,29.89,10.0,NE,3.5,-,N/A,,Clear,40,2012-10-01 11:15:00
6:35 AM,51.8,48.2,88,29.88,10.0,Calm,Calm,-,N/A,,Clear,0,2012-10-01 11:35:00
6:55 AM,51.8,48.2,88,29.88,10.0,Calm,Calm,-,N/A,,Clear,0,2012-10-01 11:55:00
7:15 AM,51.8,48.2,88,29.89,10.0,Calm,Calm,-,N/A,,Clear,0,2012-10-01 12:15:00
7:35 AM,51.8,48.2,88,29.89,10.0,Calm,Calm,-,N/A,,Clear,0,2012-10-01 12:35:00
7:55 AM,51.8,48.2,88,29.89,10.0,Calm,Calm,-,N/A,,Clear,0,2012-10-01 12:55:00
8:15 AM,53.6,48.2,82,29.89,10.0,Calm,Calm,-,N/A,,Clear,0,2012-10-01 13:15:00
8:35 AM,53.6,50.0,88,29.89,10.0,Calm,Calm,-,N/A,,Clear,0,2012-10-01 13:35:00
8:55 AM,55.4,50.0,82,29.90,10.0,Calm,Calm,-,N/A,,Clear,0,2012-10-01 13:55:00
9:15 AM,57.2,50.0,77,29.89,10.0,Calm,Calm,-,N/A,,Clear,0,2012-10-01 14:15:00
9:35 AM,60.8,50.0,68,29.89,10.0,Calm,Calm,-,N/A,,Clear,0,2012-10-01 14:35:00
10:15 AM,66.2,50.0,56,29.90,10.0,NNE,3.5,-,N/A,,Clear,20,2012-10-01 15:15:00
10:35 AM,69.8,48.2,46,29.90,10.0,NNE,4.6,-,N/A,,Clear,30,2012-10-01 15:35:00
10:55 AM,73.4,44.6,36,29.90,10.0,North,10.4,16.1,N/A,,Clear,360,2012-10-01 15:55:00
11:15 AM,71.6,44.6,38,29.90,10.0,North,5.8,17.3,N/A,,Clear,360,2012-10-01 16:15:00
11:35 AM,71.6,46.4,41,29.91,10.0,NNW,9.2,-,N/A,,Clear,330,2012-10-01 16:35:00
12:15 PM,75.2,46.4,36,29.91,10.0,North,8.1,-,N/A,,Clear,10,2012-10-01 17:15:00
12:35 PM,77.0,46.4,34,29.90,10.0,North,11.5,-,N/A,,Clear,360,2012-10-01 17:35:00
1:15 PM,78.8,48.2,34,29.89,10.0,North,13.8,19.6,N/A,,Clear,10,2012-10-01 18:15:00
1:35 PM,78.8,46.4,32,29.89,10.0,North,16.1,23.0,N/A,,Clear,10,2012-10-01 18:35:00
1:55 PM,78.8,46.4,32,29.88,10.0,North,11.5,23.0,N/A,,Clear,10,2012-10-01 18:55:00
2:15 PM,80.6,46.4,30,29.87,10.0,NNE,9.2,20.7,N/A,,Clear,30,2012-10-01 19:15:00
2:35 PM,80.6,44.6,28,29.87,10.0,North,16.1,24.2,N/A,,Clear,350,2012-10-01 19:35:00
2:55 PM,78.8,44.6,30,29.87,10.0,North,13.8,24.2,N/A,,Clear,350,2012-10-01 19:55:00
3:15 PM,78.8,44.6,30,29.87,10.0,North,11.5,21.9,N/A,,Clear,360,2012-10-01 20:15:00
3:35 PM,80.6,44.6,28,29.87,10.0,North,17.3,20.7,N/A,,Clear,10,2012-10-01 20:35:00
3:55 PM,78.8,44.6,30,29.87,10.0,North,13.8,23.0,N/A,,Clear,360,2012-10-01 20:55:00
4:15 PM,78.8,44.6,30,29.87,10.0,North,17.3,23.0,N/A,,Scattered Clouds,360,2012-10-01 21:15:00
4:35 PM,78.8,39.2,24,29.88,10.0,North,19.6,25.3,N/A,,Clear,360,2012-10-01 21:35:00
4:55 PM,77.0,33.8,21,29.88,10.0,North,13.8,24.2,N/A,,Clear,360,2012-10-01 21:55:00
5:15 PM,75.2,33.8,22,29.89,10.0,North,12.7,23.0,N/A,,Clear,350,2012-10-01 22:15:00
5:35 PM,75.2,33.8,22,29.89,10.0,North,15.0,19.6,N/A,,Clear,360,2012-10-01 22:35:00
5:55 PM,73.4,35.6,25,29.90,10.0,North,12.7,25.3,N/A,,Clear,360,2012-10-01 22:55:00
6:15 PM,73.4,37.4,27,29.90,10.0,North,12.7,20.7,N/A,,Clear,350,2012-10-01 23:15:00
6:35 PM,71.6,37.4,29,29.90,10.0,North,11.5,-,N/A,,Clear,360,2012-10-01 23:35:00
6:55 PM,71.6,37.4,29,29.91,10.0,North,9.2,16.1,N/A,,Clear,360,2012-10-01 23:55:00
7:15 PM,69.8,37.4,31,29.91,10.0,North,12.7,17.3,N/A,,Clear,350,2012-10-02 00:15:00
7:35 PM,69.8,39.2,33,29.91,10.0,North,10.4,-,N/A,,Clear,350,2012-10-02 00:35:00
7:55 PM,68.0,39.2,35,29.92,10.0,North,6.9,-,N/A,,Clear,350,2012-10-02 00:55:00
8:15 PM,66.2,39.2,37,29.92,10.0,North,5.8,-,N/A,,Clear,350,2012-10-02 01:15:00
8:35 PM,64.4,41.0,42,29.93,10.0,North,5.8,-,N/A,,Clear,350,2012-10-02 01:35:00
8:55 PM,64.4,41.0,42,29.93,10.0,North,5.8,-,N/A,,Clear,350,2012-10-02 01:55:00
9:15 PM,62.6,42.8,48,29.93,10.0,North,3.5,-,N/A,,Clear,10,2012-10-02 02:15:00
9:35 PM,62.6,42.8,48,29.94,10.0,North,6.9,-,N/A,,Clear,360,2012-10-02 02:35:00
9:55 PM,62.6,42.8,48,29.94,10.0,North,5.8,-,N/A,,Clear,360,2012-10-02 02:55:00
10:15 PM,60.8,42.8,52,29.94,10.0,North,3.5,-,N/A,,Clear,360,2012-10-02 03:15:00
10:35 PM,59.0,42.8,55,29.95,10.0,North,5.8,-,N/A,,Clear,360,2012-10-02 03:35:00
11:15 PM,59.0,42.8,55,29.95,10.0,North,8.1,-,N/A,,Clear,360,2012-10-02 04:15:00
11:35 PM,59.0,42.8,55,29.95,10.0,North,6.9,-,N/A,,Clear,360,2012-10-02 04:35:00
11:55 PM,59.0,39.2,48,29.95,10.0,North,6.9,-,N/A,,Clear,350,2012-10-02 04:55:00